Flag for Canada Weather past 2 weeks in Markham, Ontario, Canada

Now
90 °F

Passing clouds.


Feels Like: 90 °F
Forecast: N/A
Wind: 15 mph from South

Location: Toronto Buttonville

Current Time: Jul 29, 2015 at 6:15:28 PM

Latest Report: Jul 29, 2015 at 5:00 PM


Visibility: 15 mi

Pressure: 29.85 "Hg

Humidity: 38%

Dew point: 61 °F

Location of MarkhamLocation

Historic Weather in Markham — Graph

°F

Markham temperature yesterday

Maximum temperature yesterday: 91 °F (at 5:00 PM)
Minimum temperature yesterday: 66 °F (at 6:00 AM)
Average temperature yesterday: 80 °F

Past Weeks' High & Low Weather Summary

 TemperatureHumidityPressure
High91 °F (Jul 27, 4:00 PM)100% (Jul 18, 4:48 AM)30.14 "Hg (Jul 18, 4:48 AM)
Low52 °F (Jul 15, 6:00 AM)32% (Jul 23, 3:00 PM)29.51 "Hg (Jul 14, 5:00 PM)
Average72 °F62%29.89 "Hg
* Reported Jul 14 4:00 PM — Jul 29 4:00 PM, Markham, Weather by CustomWeather, © 2015

Note: Actual official high and low records may vary slightly from our data, if they occured in-between our weather recording intervals... More about our weather records

Advertising

Markham weather history for previous 24 hours

 ConditionsComfort  
Time TempWeatherWind HumidityBarometerVisibility
4:00 PM
Wed, Jul 29
91 °FBroken clouds.10 mph38%29.88 "Hg15 mi
3:00 PM90 °FBroken clouds.15 mph36%29.90 "Hg15 mi
2:00 PM90 °FPartly sunny.14 mph36%29.91 "Hg15 mi
1:00 PM90 °FPartly sunny.10 mph38%29.92 "Hg14 mi
12:00 PM90 °FPassing clouds.5 mph36%29.95 "Hg12 mi
11:00 AM84 °FPartly sunny.3 mph51%29.96 "Hg12 mi
10:00 AM82 °FBroken clouds.2 mph55%29.96 "Hg15 mi
9:00 AM77 °FBroken clouds.No wind57%29.97 "Hg15 mi
8:00 AM73 °FBroken clouds.2 mph65%29.97 "Hg15 mi
7:00 AM70 °FPartly cloudy.No wind73%29.96 "Hg15 mi
6:00 AM68 °FPartly cloudy.3 mph73%29.96 "Hg15 mi
5:00 AM68 °FPassing clouds.No wind73%29.97 "Hg15 mi
4:00 AM70 °FPassing clouds.No wind69%29.97 "Hg15 mi
3:00 AM70 °FPassing clouds.3 mph73%29.98 "Hg15 mi
2:00 AM72 °FPassing clouds.2 mph69%29.98 "Hg15 mi
1:00 AM73 °FPassing clouds.No wind65%30.00 "Hg15 mi
12:00 AM75 °FPassing clouds.3 mph61%29.99 "Hg15 mi
11:00 PM
Tue, Jul 28
77 °FPassing clouds.3 mph57%29.98 "Hg15 mi
10:00 PM79 °FPassing clouds.2 mph51%29.98 "Hg15 mi
9:00 PM82 °FScattered clouds.No wind40%29.97 "Hg15 mi
8:00 PM84 °FPartly sunny.6 mph37%29.95 "Hg15 mi
7:00 PM88 °FPartly sunny.9 mph33%29.96 "Hg15 mi
6:00 PM90 °FPartly sunny.8 mph33%29.98 "Hg15 mi
Weather by CustomWeather, © 2015

See weather overviewHow to use our weather pages